Location: Pace/Milton
(30.6162°N, 87.1503°W)
Time: 21:17:38
(UTC-06:00)

ISS - Visible Passes

Search period start: 05 December 2021 00:00
Search period end: 15 December 2021 00:00
Orbit: 417 x 422 km, 51.6° (Epoch: 06 December)

Date Brightness Start Highest point End Pass type
(mag) Time Alt. Az. Time Alt. Az. Time Alt. Az.
05 Dec -1.6 18:04:00 10° N 18:05:06 15° N 18:05:06 15° N visible
06 Dec -1.6 17:17:34 10° N 17:18:54 12° NNE 17:20:13 10° NE visible
06 Dec -1.1 18:52:40 10° NW 18:53:31 17° NW 18:53:31 17° NW visible
07 Dec -3.8 18:05:18 10° NW 18:08:39 60° NE 18:09:19 47° E visible
08 Dec -2.9 17:18:08 10° NNW 17:21:12 31° NE 17:24:15 10° ESE visible
08 Dec -0.9 18:55:35 10° W 18:57:48 16° SW 18:58:46 15° SSW visible
09 Dec -1.8 18:07:29 10° WNW 18:10:32 31° SW 18:13:33 10° SSE visible
10 Dec -3.3 17:19:51 10° NW 17:23:12 65° SW 17:26:32 10° SE visible
12 Dec -0.4 17:22:45 10° W 17:24:56 16° SW 17:27:06 10° SSW visible
